EW0997 Weather Reports


Display with metric or nautical units.
time (UTC)temp
F
wind
direction
speed
MPH
gust
MPH
rain 1hr
in
rain 24hr
in
rain mn
in
humidity
%
barometer
mb
20260507075205 57 9 5.0 8.0 0.00 0.00 0.00 72 1015.6
20260507074706 57 70 3.0 6.0 0.00 0.00 0.00 73 1015.6
20260507074206 56 8 3.0 6.0 0.00 0.00 0.00 73 1015.6
20260507073706 56 77 3.0 6.0 0.00 0.00 0.00 74 1015.6
20260507072706 55 13 4.0 8.0 0.00 0.00 0.00 74 1015.5
20260507072205 55 60 2.0 6.0 0.00 0.00 0.00 74 1015.5
20260507071206 55 11 3.0 5.0 0.00 0.00 0.00 75 1015.5
20260507070706 55 70 3.0 6.0 0.00 0.00 0.00 78 1015.5
20260507070206 54 70 2.0 6.0 0.00 0.00 0.00 79 1015.4
20260507065205 53 20 4.0 6.0 0.00 0.00 0.00 78 1015.4
20260507064706 53 10 3.0 8.0 0.00 0.00 0.00 79 1015.3
20260507064206 52 5 4.0 8.0 0.00 0.00 0.00 80 1015.3
20260507062207 51 10 3.0 5.0 0.00 0.00 0.00 86 1015.3
20260507060706 48 345 2.0 3.0 0.00 0.00 0.00 91 1015.2
20260507060205 47 336 2.0 3.0 0.00 0.00 0.00 92 1015.2
20260507055706 47 327 2.0 3.0 0.00 0.00 0.00 92 1015.1
20260507055206 46 346 2.0 3.0 0.00 0.00 0.00 92 1015.1
20260507054705 45 334 1.0 3.0 0.00 0.00 0.00 93 1015.1
20260507054205 45 321 1.0 3.0 0.00 0.00 0.00 93 1015.0
20260507053706 44 321 1.0 2.0 0.00 0.00 0.00 93 1015.0
20260507053205 44 321 0.0 2.0 0.00 0.00 0.00 93 1015.0
20260507052706 43 321 0.0 0.0 0.00 0.00 0.00 93 1015.0
20260507051705 43 321 0.0 0.0 0.00 0.00 0.00 94 1014.9
20260507051206 42 321 0.0 0.0 0.00 0.00 0.00 94 1014.8
20260507050205 42 321 1.0 3.0 0.00 0.00 0.00 93 1014.8
20260507045705 41 321 1.0 2.0 0.00 0.00 0.00 93 1014.7
20260507045205 41 321 1.0 2.0 0.00 0.00 0.00 93 1014.6
20260507044706 41 321 1.0 3.0 0.00 0.00 0.00 93 1014.6
20260507044206 41 321 2.0 3.0 0.00 0.00 0.00 93 1014.5
20260507043706 41 321 2.0 3.0 0.00 0.00 0.00 93 1014.5
20260507043206 41 321 1.0 2.0 0.00 0.00 0.00 93 1014.5
20260507042705 42 321 1.0 2.0 0.00 0.00 0.00 93 1014.4
20260507042206 41 321 0.0 2.0 0.00 0.00 0.00 93 1014.4
20260507041705 41 321 1.0 2.0 0.00 0.00 0.00 93 1014.4
20260507041205 41 321 1.0 2.0 0.00 0.00 0.00 93 1014.3
20260507040706 41 321 1.0 2.0 0.00 0.00 0.00 93 1014.3
20260507040205 41 321 1.0 2.0 0.00 0.00 0.00 92 1014.2
20260507035206 42 321 1.0 3.0 0.00 0.00 0.00 92 1014.2
20260507034206 42 321 1.0 2.0 0.00 0.00 0.00 92 1014.2
20260507033705 42 321 2.0 3.0 0.00 0.00 0.00 92 1014.1
20260507033205 42 321 2.0 3.0 0.00 0.00 0.00 92 1014.2
20260507032205 42 321 0.0 2.0 0.00 0.00 0.00 92 1014.1
20260507031206 42 321 0.0 0.0 0.00 0.00 0.00 92 1014.0
20260507030705 42 321 0.0 0.0 0.00 0.00 0.00 92 1014.0
20260507030205 42 321 0.0 0.0 0.00 0.00 0.00 92 1014.0
20260507025705 42 321 0.0 0.0 0.00 0.00 0.00 92 1014.0
20260507025205 42 321 0.0 2.0 0.00 0.00 0.00 92 1014.0
20260507024705 42 321 1.0 2.0 0.00 0.00 0.00 92 1013.9
20260507024205 42 321 1.0 3.0 0.00 0.00 0.00 92 1014.0
20260507023707 42 321 2.0 3.0 0.00 0.00 0.00 91 1014.0
20260507022205 42 321 2.0 3.0 0.00 0.00 0.00 91 1013.9
20260507021707 42 330 0.0 0.0 0.00 0.00 0.00 91 1013.8
20260507021205 42 342 0.0 0.0 0.00 0.00 0.00 91 1013.8
20260507020706 43 342 0.0 0.0 0.00 0.00 0.00 90 1013.8
20260507020205 43 342 0.0 0.0 0.00 0.00 0.00 91 1013.7
20260507015705 43 342 0.0 0.0 0.00 0.00 0.00 91 1013.6
20260507015205 43 342 0.0 0.0 0.00 0.00 0.00 90 1013.6
20260507014706 44 342 0.0 0.0 0.00 0.00 0.00 90 1013.6
20260507014205 44 342 0.0 1.0 0.00 0.00 0.00 90 1013.6
20260507013706 44 342 0.0 2.0 0.00 0.00 0.00 90 1013.6
20260507013206 44 342 0.0 0.0 0.00 0.00 0.00 90 1013.5
20260507012705 44 342 0.0 1.0 0.00 0.00 0.00 90 1013.5
20260507012205 45 342 1.0 2.0 0.00 0.00 0.00 89 1013.5
20260507011705 45 0 1.0 2.0 0.00 0.00 0.00 89 1013.5
20260507010205 46 15 2.0 3.0 0.00 0.00 0.00 89 1013.4
20260507005705 46 18 2.0 3.0 0.00 0.00 0.00 89 1013.4
20260507005205 46 21 2.0 3.0 0.00 0.00 0.00 89 1013.4
20260507004205 46 22 3.0 5.0 0.00 0.00 0.00 88 1013.4
20260507003706 46 10 3.0 5.0 0.00 0.00 0.00 89 1013.4
20260507003205 46 12 3.0 5.0 0.00 0.00 0.00 88 1013.3
20260507002705 46 5 2.0 5.0 0.00 0.00 0.00 88 1013.2
20260507002205 47 9 3.0 5.0 0.00 0.00 0.00 88 1013.3
20260507001705 47 351 2.0 5.0 0.00 0.00 0.00 88 1013.2
20260507001205 47 8 2.0 3.0 0.00 0.00 0.00 88 1013.2
20260507000706 47 15 3.0 5.0 0.00 0.00 0.00 88 1013.2
20260507000205 47 12 3.0 8.0 0.00 0.00 0.00 87 1013.2
20260506235206 47 15 4.0 8.0 0.00 0.00 0.00 87 1013.2
20260506234705 47 11 5.0 8.0 0.00 0.00 0.00 87 1013.2
20260506234205 47 12 3.0 9.0 0.00 0.00 0.00 87 1013.2
20260506233705 47 3 5.0 8.0 0.00 0.00 0.00 86 1013.1
20260506233205 48 13 3.0 8.0 0.00 0.00 0.00 86 1013.1
20260506232705 48 14 3.0 6.0 0.00 0.00 0.00 86 1013.1
20260506232205 48 9 4.0 8.0 0.00 0.00 0.00 86 1013.1
20260506231705 48 19 5.0 7.0 0.00 0.00 0.00 85 1013.1
20260506230705 48 7 4.0 9.0 0.00 0.00 0.00 85 1013.0
20260506230205 49 7 5.0 9.0 0.00 0.00 0.00 84 1013.0
20260506225704 49 7 5.0 9.0 0.00 0.00 0.00 84 1013.0
20260506224705 49 15 5.0 10.0 0.00 0.00 0.00 83 1013.0
20260506223204 50 7 5.0 12.0 0.00 0.00 0.00 81 1012.9
20260506222705 50 14 6.0 12.0 0.00 0.00 0.00 81 1012.9
20260506221705 50 15 6.0 12.0 0.00 0.00 0.00 80 1012.9
20260506221205 51 12 5.0 10.0 0.00 0.00 0.00 79 1012.8
20260506220205 51 9 5.0 10.0 0.00 0.00 0.00 78 1012.8
20260506215205 51 27 5.0 9.0 0.00 0.00 0.00 76 1012.7
20260506214704 52 10 6.0 9.0 0.00 0.00 0.00 75 1012.6
20260506213704 52 23 5.0 10.0 0.00 0.00 0.00 75 1012.5
20260506213205 52 14 5.0 10.0 0.00 0.00 0.00 74 1012.5
20260506212706 52 15 6.0 12.0 0.00 0.00 0.00 74 1012.5
20260506212205 52 15 3.0 10.0 0.00 0.00 0.00 74 1012.5
20260506211704 52 358 5.0 10.0 0.00 0.00 0.00 74 1012.4
20260506211205 53 9 5.0 10.0 0.00 0.00 0.00 73 1012.4
20260506210204 53 9 6.0 10.0 0.00 0.00 0.00 72 1012.3
20260506205704 53 13 7.0 13.0 0.00 0.00 0.00 72 1012.3
20260506205204 53 13 6.0 10.0 0.00 0.00 0.00 72 1012.2
20260506204704 53 16 5.0 12.0 0.00 0.00 0.00 72 1012.2
20260506204205 53 16 5.0 12.0 0.00 0.00 0.00 72 1012.1
20260506203704 53 9 5.0 12.0 0.00 0.00 0.00 71 1012.1
20260506203204 53 24 6.0 9.0 0.00 0.00 0.00 71 1012.1
20260506202704 53 13 3.0 12.0 0.00 0.00 0.00 70 1012.1
20260506202205 53 23 5.0 9.0 0.00 0.00 0.00 70 1012.1
20260506201205 54 11 5.0 12.0 0.00 0.00 0.00 70 1011.9
20260506200706 54 18 6.0 10.0 0.00 0.00 0.00 71 1011.9
20260506200205 54 20 6.0 10.0 0.00 0.00 0.00 71 1011.9
20260506195705 54 17 4.0 10.0 0.00 0.00 0.00 70 1011.9
20260506195204 54 12 5.0 10.0 0.00 0.00 0.00 71 1011.8
20260506194705 54 19 3.0 12.0 0.00 0.00 0.00 71 1011.7
20260506194205 54 18 5.0 9.0 0.00 0.00 0.00 72 1011.7
20260506193205 54 30 5.0 8.0 0.00 0.00 0.00 73 1011.5
20260506192704 54 19 3.0 7.0 0.00 0.00 0.00 75 1011.5
20260506192204 54 16 2.0 5.0 0.00 0.00 0.00 75 1011.5
20260506191705 54 66 6.0 12.0 0.00 0.00 0.00 77 1011.5
20260506190705 55 74 3.0 7.0 0.00 0.00 0.00 75 1011.3
20260506190205 55 48 3.0 13.0 0.00 0.00 0.00 74 1011.3
20260506185705 55 69 4.0 13.0 0.00 0.00 0.00 71 1011.1
20260506185205 55 31 5.0 9.0 0.00 0.00 0.00 71 1011.1
20260506184704 55 25 3.0 9.0 0.00 0.00 0.00 71 1011.0
20260506184204 55 13 3.0 8.0 0.00 0.00 0.00 70 1010.9
20260506183206 55 12 2.0 5.0 0.00 0.00 0.00 71 1010.8
20260506182704 55 7 3.0 6.0 0.00 0.00 0.00 69 1010.8
20260506182204 55 19 2.0 5.0 0.00 0.00 0.00 70 1010.8
20260506181704 55 14 4.0 8.0 0.00 0.00 0.00 69 1010.7
20260506180204 55 55 6.0 12.0 0.00 0.00 0.00 67 1010.6
20260506175705 55 17 5.0 10.0 0.00 0.00 0.00 68 1010.6
20260506175204 55 23 5.0 10.0 0.00 0.00 0.00 67 1010.5
20260506174704 55 15 4.0 8.0 0.00 0.00 0.00 66 1010.4
20260506174204 56 22 6.0 9.0 0.00 0.00 0.00 65 1010.2
20260506173705 56 14 3.0 8.0 0.00 0.00 0.00 67 1010.2
20260506173204 56 22 4.0 10.0 0.00 0.00 0.00 65 1010.1
20260506172704 56 30 3.0 10.0 0.00 0.00 0.00 65 1010.1
20260506172204 56 10 3.0 8.0 0.00 0.00 0.00 65 1010.0
20260506171204 57 70 5.0 9.0 0.00 0.00 0.00 66 1009.9
20260506170704 57 47 3.0 7.0 0.00 0.00 0.00 65 1009.9
20260506170204 57 60 3.0 8.0 0.00 0.00 0.00 63 1009.9
20260506165704 57 24 3.0 12.0 0.00 0.00 0.00 65 1009.9
20260506165204 56 73 3.0 7.0 0.00 0.00 0.00 65 1009.9
20260506164204 56 136 2.0 5.0 0.00 0.00 0.00 63 1009.8
20260506163704 56 121 1.0 3.0 0.00 0.00 0.00 66 1009.9
20260506163204 56 121 1.0 3.0 0.00 0.00 0.00 64 1009.8
20260506162704 56 99 3.0 6.0 0.00 0.00 0.00 64 1009.8
20260506161704 57 102 1.0 5.0 0.00 0.00 0.00 65 1009.8
20260506161204 56 101 3.0 6.0 0.00 0.00 0.00 62 1009.7
20260506160205 56 100 2.0 6.0 0.00 0.00 0.00 60 1009.8
20260506155704 57 103 1.0 5.0 0.00 0.00 0.00 61 1009.8
20260506155204 57 77 1.0 8.0 0.00 0.00 0.00 62 1009.8
20260506154703 57 65 1.0 7.0 0.00 0.00 0.00 62 1009.8
20260506154204 56 134 2.0 5.0 0.00 0.00 0.00 60 1009.8
20260506153704 57 95 3.0 6.0 0.00 0.00 0.00 62 1009.8
20260506153206 57 110 5.0 9.0 0.00 0.00 0.00 61 1009.8
20260506152707 57 77 2.0 8.0 0.00 0.00 0.00 60 1009.8
20260506152206 57 61 2.0 8.0 0.00 0.00 0.00 60 1009.7
20260506151706 57 99 3.0 7.0 0.00 0.00 0.00 58 1009.7
20260506151206 57 109 2.0 6.0 0.00 0.00 0.00 61 1009.7
20260506150706 57 66 2.0 8.0 0.00 0.00 0.00 63 1009.6
20260506150206 57 111 3.0 8.0 0.00 0.00 0.00 63 1009.6
20260506145706 57 109 4.0 8.0 0.00 0.00 0.00 60 1009.6
20260506145206 57 87 2.0 9.0 0.00 0.00 0.00 60 1009.6
20260506144206 56 122 5.0 9.0 0.00 0.00 0.00 61 1009.7
20260506143706 57 115 6.0 12.0 0.00 0.00 0.00 61 1009.7
20260506142706 57 120 3.0 8.0 0.00 0.00 0.00 62 1009.6
20260506142206 57 111 2.0 8.0 0.00 0.00 0.00 62 1009.6
20260506141706 57 94 3.0 10.0 0.00 0.00 0.00 60 1009.6
20260506140706 59 40 5.0 14.0 0.00 0.00 0.00 54 1009.6
20260506140206 59 49 6.0 13.0 0.00 0.00 0.00 51 1009.6
20260506135706 59 18 5.0 14.0 0.00 0.00 0.00 49 1009.6
20260506135206 59 51 4.0 14.0 0.00 0.00 0.00 57 1009.6
20260506133206 57 87 3.0 9.0 0.00 0.00 0.00 59 1009.5
20260506132705 57 96 2.0 10.0 0.00 0.00 0.00 60 1009.5
20260506132206 56 69 5.0 10.0 0.00 0.00 0.00 59 1009.5
20260506131706 56 95 3.0 7.0 0.00 0.00 0.00 60 1009.4
20260506131206 57 100 2.0 7.0 0.00 0.00 0.00 59 1009.5
20260506130706 58 78 6.0 10.0 0.00 0.00 0.00 60 1009.4
20260506130206 58 46 6.0 9.0 0.00 0.00 0.00 58 1009.3
20260506125706 58 62 5.0 12.0 0.00 0.00 0.00 55 1009.3
20260506125206 58 60 6.0 12.0 0.00 0.00 0.00 58 1009.3
20260506124706 59 30 10.0 15.0 0.00 0.00 0.00 53 1009.2
20260506124206 59 35 3.0 10.0 0.00 0.00 0.00 58 1009.3
20260506123706 59 62 6.0 13.0 0.00 0.00 0.00 59 1009.2
20260506123206 59 64 6.0 10.0 0.00 0.00 0.00 58 1009.2
20260506122706 59 70 7.0 12.0 0.00 0.00 0.00 62 1009.2
20260506122208 59 46 6.0 12.0 0.00 0.00 0.00 62 1009.2
20260506121706 59 32 6.0 12.0 0.00 0.00 0.00 58 1009.1
20260506121206 60 44 6.0 12.0 0.00 0.00 0.00 59 1009.2
20260506120706 61 15 11.0 18.0 0.00 0.00 0.00 55 1009.2
20260506120206 61 35 5.0 14.0 0.00 0.00 0.00 58 1009.1
20260506115705 61 55 6.0 14.0 0.00 0.00 0.00 58 1009.1
20260506115205 59 64 6.0 12.0 0.00 0.00 0.00 59 1009.1
20260506114705 60 59 6.0 16.0 0.00 0.00 0.00 59 1009.1
20260506114206 59 17 8.0 14.0 0.00 0.00 0.00 62 1009.1
20260506113706 58 11 7.0 14.0 0.00 0.00 0.00 59 1009.1
20260506112706 60 72 6.0 13.0 0.00 0.00 0.00 63 1009.1
20260506112206 60 31 6.0 14.0 0.00 0.00 0.00 62 1009.1
20260506111706 60 61 7.0 17.0 0.00 0.00 0.00 61 1009.1
20260506111206 60 16 6.0 12.0 0.00 0.00 0.00 64 1009.1
20260506105705 60 52 8.0 15.0 0.00 0.00 0.00 65 1009.1
20260506105206 60 69 6.0 15.0 0.00 0.00 0.00 64 1009.1
20260506104705 60 71 7.0 16.0 0.00 0.00 0.00 62 1009.0
20260506104205 60 32 7.0 14.0 0.00 0.00 0.00 62 1009.1
20260506103706 59 62 8.0 14.0 0.00 0.00 0.00 68 1009.0
20260506103205 59 28 7.0 12.0 0.00 0.00 0.00 69 1009.1
20260506102706 58 13 7.0 14.0 0.00 0.00 0.00 67 1009.1
20260506102206 58 62 6.0 13.0 0.00 0.00 0.00 70 1009.0
20260506100206 57 55 6.0 12.0 0.00 0.00 0.00 74 1008.9
20260506095706 57 20 4.0 13.0 0.00 0.00 0.00 74 1008.9
20260506095205 57 7 7.0 13.0 0.00 0.00 0.00 73 1008.9
20260506094706 58 56 9.0 15.0 0.00 0.00 0.00 74 1008.9
20260506094206 57 47 9.0 13.0 0.00 0.00 0.00 76 1008.8
20260506093706 56 15 7.0 15.0 0.00 0.00 0.00 76 1008.8
20260506093206 56 57 7.0 13.0 0.00 0.00 0.00 77 1008.9
20260506092705 56 54 7.0 14.0 0.00 0.00 0.00 75 1008.8
20260506092205 57 31 7.0 13.0 0.00 0.00 0.00 73 1008.8
20260506091705 58 12 5.0 14.0 0.00 0.00 0.00 72 1008.6
20260506090705 59 71 7.0 13.0 0.00 0.00 0.00 71 1008.7
20260506090205 59 76 9.0 15.0 0.00 0.00 0.00 71 1008.7
20260506085706 59 54 10.0 17.0 0.00 0.00 0.00 69 1008.7
20260506084205 58 19 9.0 18.0 0.00 0.00 0.00 70 1008.5
20260506083706 58 14 9.0 16.0 0.00 0.00 0.00 71 1008.5
20260506083206 58 64 9.0 15.0 0.00 0.00 0.00 73 1008.5
20260506082705 57 59 6.0 12.0 0.00 0.00 0.00 76 1008.4
20260506082205 57 3 6.0 13.0 0.00 0.00 0.00 78 1008.4
20260506081706 56 23 5.0 10.0 0.00 0.00 0.00 79 1008.4
20260506081205 56 32 8.0 12.0 0.00 0.00 0.00 77 1008.4
20260506080705 56 19 5.0 10.0 0.00 0.00 0.00 78 1008.4
20260506080205 55 16 6.0 13.0 0.00 0.00 0.00 79 1008.3